QPF
0.00 0.01 0.02 0.02 0.03 0.04 0.03 0.02 0.01 0.01 0.01 0.02 0.02 0.03 0.02 0.02 0.01 0.01 0.01 0.00 0.00 0.01 0.01 0.01 0.01 0.01 0.02 0.02 0.02 0.01 0.01 0.01 0.01 0.00 0.01 0.01 0.01 0.01 0.01 0.00 0.01 0.01 0.01
0.00 0.01 0.02 0.01 0.03 0.05 0.04 0.02 0.01 0.01 0.01 0.01 0.02 0.02 0.02 0.02 0.01 0.01 0.01 0.01 0.01 0.01 0.01 0.02 0.01 0.01 0.01 0.01 0.01 0.01 0.01 0.01 0.00 0.00 0.00 0.00 0.01 0.01 0.01 0.00 0.00 0.01 0.01
0.00 0.01 0.02 0.02 0.03 0.04 0.05 0.04 0.02 0.01 0.01 0.01 0.02 0.02 0.02 0.02 0.01 0.01 0.01 0.01 0.01 0.01 0.01 0.01 0.01 0.00 0.00 0.00 0.00 0.01 0.01 0.00 0.00 0.00 0.00 0.00 0.00 0.01 0.01 0.01 0.01 0.01 0.01
0.00 0.01 0.02 0.02 0.02 0.03 0.04 0.04 0.03 0.02 0.01 0.01 0.01 0.02 0.02 0.02 0.02 0.01 0.01 0.01 0.01 0.01 0.01 0.01 0.01 0.00 0.00 0.00 0.00 0.01 0.00 0.00 0.00 0.00 0.00 0.00 0.01 0.01 0.01 0.01 0.02 0.02 0.02
0.01 0.02 0.03 0.03 0.03 0.03 0.03 0.04 0.03 0.03 0.02 0.02 0.01 0.01 0.02 0.03 0.03 0.02 0.01 0.01 0.01 0.00 0.01 0.01 0.01 0.00 0.00 0.00 0.00 0.00 0.00 0.00 0.00 0.00 0.00 0.00 0.01 0.02 0.02 0.02 0.02 0.02 0.02
0.01 0.03 0.04 0.05 0.05 0.04 0.04 0.03 0.04 0.03 0.03 0.02 0.01 0.01 0.02 0.03 0.03 0.03 0.02 0.01 0.01 0.01 0.01 0.01 0.01 0.00 0.00 0.00 0.00 0.00 0.00 0.00 0.00 0.00 0.00 0.00 0.01 0.02 0.02 0.01 0.01 0.01 0.02
0.01 0.04 0.05 0.07 0.08 0.07 0.04 0.03 0.04 0.04 0.04 0.03 0.02 0.02 0.03 0.02 0.03 0.03 0.03 0.02 0.01 0.01 0.01 0.00 0.00 0.00 0.00 0.00 0.00 0.00 0.00 0.00 0.00 0.00 0.00 0.01 0.01 0.02 0.02 0.02 0.02 0.02 0.02
0.01 0.04 0.06 0.08 0.08 0.09 0.07 0.04 0.04 0.04 0.04 0.04 0.03 0.03 0.03 0.03 0.03 0.03 0.03 0.02 0.01 0.01 0.00 0.00 0.00 0.00 0.01 0.01 0.00 0.00 0.00 0.00 0.00 0.00 0.00 0.01 0.01 0.03 0.03 0.03 0.02 0.01 0.01
0.01 0.03 0.05 0.06 0.07 0.09 0.09 0.06 0.05 0.05 0.05 0.05 0.05 0.04 0.04 0.04 0.04 0.03 0.03 0.02 0.02 0.01 0.01 0.00 0.00 0.01 0.01 0.01 0.00 0.00 0.00 0.00 0.00 0.00 0.00 0.01 0.01 0.02 0.02 0.03 0.02 0.01 0.01
0.02 0.03 0.05 0.06 0.06 0.07 0.09 0.09 0.07 0.06 0.05 0.04 0.04 0.04 0.04 0.04 0.04 0.03 0.03 0.02 0.02 0.02 0.01 0.00 0.00 0.00 0.01 0.01 0.00 0.00 0.00 0.00 0.00 0.00 0.00 0.01 0.02 0.02 0.01 0.02 0.03 0.02 0.02
0.04 0.04 0.05 0.06 0.06 0.06 0.07 0.09 0.09 0.07 0.06 0.06 0.04 0.04 0.04 0.04 0.03 0.02 0.02 0.03 0.03 0.02 0.01 0.00 0.00 0.00 0.00 0.00 0.00 0.00 0.00 0.00 0.00 0.00 0.00 0.01 0.02 0.02 0.01 0.01 0.02 0.01 0.01
0.04 0.04 0.05 0.05 0.06 0.06 0.06 0.07 0.10 0.10 0.08 0.07 0.05 0.05 0.05 0.04 0.03 0.01 0.01 0.02 0.03 0.02 0.01 0.00 0.00 0.00 0.00 0.00 0.00 0.00 0.00 0.00 0.00 0.00 0.00 0.01 0.01 0.02 0.01 0.01 0.00 0.01 0.01
0.07 0.06 0.05 0.05 0.05 0.06 0.06 0.06 0.09 0.13 0.12 0.08 0.06 0.06 0.05 0.05 0.04 0.03 0.02 0.02 0.03 0.02 0.01 0.01 0.00 0.00 0.00 0.00 0.00 0.00 0.00 0.00 0.00 0.00 0.00 0.00 0.01 0.02 0.02 0.01 0.01 0.01 0.01
0.10 0.12 0.09 0.06 0.05 0.05 0.08 0.08 0.08 0.12 0.17 0.15 0.10 0.06 0.04 0.04 0.05 0.03 0.03 0.02 0.02 0.01 0.01 0.01 0.01 0.00 0.00 0.00 0.00 0.00 0.00 0.00 0.00 0.00 0.00 0.00 0.00 0.01 0.01 0.02 0.02 0.02 0.02
0.10 0.10 0.10 0.06 0.05 0.05 0.09 0.14 0.11 0.10 0.16 0.22 0.20 0.14 0.06 0.03 0.05 0.05 0.03 0.02 0.02 0.01 0.01 0.01 0.01 0.00 0.00 0.00 0.00 0.00 0.00 0.00 0.00 0.00 0.00 0.00 0.00 0.00 0.01 0.01 0.02 0.03 0.04
0.12 0.11 0.09 0.07 0.05 0.06 0.08 0.14 0.17 0.13 0.14 0.20 0.24 0.18 0.11 0.05 0.05 0.08 0.07 0.05 0.02 0.01 0.01 0.01 0.01 0.01 0.00 0.00 0.00 0.00 0.00 0.00 0.00 0.00 0.00 0.00 0.00 0.00 0.01 0.02 0.02 0.03 0.03
0.15 0.13 0.09 0.07 0.07 0.07 0.09 0.12 0.16 0.15 0.14 0.18 0.21 0.20 0.15 0.08 0.05 0.07 0.07 0.07 0.06 0.03 0.01 0.01 0.02 0.01 0.01 0.00 0.00 0.00 0.00 0.00 0.00 0.00 0.00 0.00 0.00 0.00 0.00 0.01 0.01 0.01 0.01
0.14 0.19 0.17 0.11 0.08 0.07 0.08 0.12 0.16 0.17 0.16 0.16 0.19 0.18 0.18 0.15 0.08 0.06 0.06 0.04 0.05 0.04 0.02 0.01 0.02 0.02 0.01 0.01 0.00 0.00 0.00 0.00 0.00 0.00 0.00 0.00 0.00 0.00 0.00 0.00 0.00 0.00 0.00
0.11 0.18 0.20 0.16 0.11 0.08 0.09 0.12 0.15 0.15 0.15 0.14 0.17 0.17 0.16 0.18 0.13 0.08 0.07 0.05 0.04 0.04 0.03 0.02 0.01 0.02 0.02 0.01 0.01 0.00 0.00 0.00 0.00 0.00 0.00 0.00 0.00 0.00 0.00 0.00 0.00 0.00 0.00
0.10 0.17 0.19 0.18 0.14 0.10 0.08 0.09 0.10 0.11 0.11 0.12 0.15 0.18 0.16 0.15 0.17 0.11 0.07 0.07 0.06 0.05 0.04 0.02 0.01 0.02 0.02 0.02 0.01 0.01 0.00 0.00 0.00 0.00 0.00 0.00 0.00 0.00 0.00 0.00 0.00 0.00 0.00
0.10 0.15 0.17 0.17 0.14 0.11 0.08 0.08 0.07 0.06 0.06 0.07 0.08 0.14 0.18 0.18 0.17 0.18 0.10 0.06 0.07 0.07 0.06 0.04 0.02 0.02 0.02 0.02 0.02 0.02 0.01 0.00 0.00 0.00 0.00 0.00 0.00 0.00 0.00 0.00 0.00 0.00 0.00
0.09 0.13 0.17 0.16 0.14 0.11 0.07 0.05 0.06 0.06 0.05 0.05 0.05 0.07 0.12 0.17 0.19 0.19 0.16 0.10 0.07 0.08 0.09 0.07 0.04 0.03 0.03 0.04 0.03 0.02 0.02 0.01 0.01 0.00 0.00 0.00 0.00 0.00 0.00 0.00 0.00 0.00 0.00
0.08 0.11 0.16 0.16 0.12 0.09 0.06 0.04 0.03 0.04 0.05 0.05 0.05 0.07 0.09 0.13 0.17 0.20 0.19 0.15 0.10 0.06 0.08 0.09 0.05 0.03 0.02 0.03 0.05 0.04 0.02 0.01 0.00 0.00 0.00 0.00 0.00 0.00 0.00 0.00 0.00 0.00 0.00
0.06 0.08 0.12 0.14 0.11 0.09 0.06 0.05 0.04 0.03 0.05 0.06 0.07 0.07 0.09 0.11 0.14 0.16 0.17 0.17 0.14 0.08 0.06 0.06 0.06 0.03 0.02 0.01 0.03 0.05 0.03 0.01 0.00 0.00 0.00 0.00 0.00 0.00 0.00 0.00 0.00 0.00 0.00
0.05 0.07 0.10 0.10 0.08 0.07 0.06 0.05 0.04 0.02 0.02 0.04 0.05 0.07 0.09 0.09 0.10 0.11 0.12 0.14 0.14 0.10 0.07 0.06 0.06 0.05 0.04 0.02 0.02 0.03 0.04 0.02 0.01 0.01 0.01 0.01 0.00 0.00 0.00 0.00 0.00 0.00 0.00
0.05 0.05 0.06 0.07 0.06 0.05 0.05 0.05 0.04 0.02 0.02 0.02 0.02 0.03 0.05 0.06 0.07 0.07 0.08 0.09 0.10 0.11 0.08 0.05 0.04 0.05 0.06 0.04 0.03 0.02 0.04 0.04 0.02 0.01 0.01 0.01 0.01 0.00 0.00 0.00 0.00 0.00 0.00
MSLP
1011.83 1012.04 1012.45 1013.00 1013.62 1014.22 1014.72 1015.09 1015.32 1015.44 1015.50 1015.56 1015.68 1015.86 1016.11 1016.39 1016.65 1016.85 1016.97 1016.99 1016.96 1016.89 1016.83 1016.81 1016.84 1016.93 1017.04 1017.15 1017.23 1017.26 1017.23 1017.15 1017.06 1016.96 1016.89 1016.84 1016.83 1016.84 1016.85 1016.86 1016.85 1016.82 1016.79
1011.62 1011.85 1012.28 1012.86 1013.52 1014.16 1014.71 1015.12 1015.39 1015.54 1015.62 1015.71 1015.84 1016.05 1016.31 1016.61 1016.90 1017.12 1017.25 1017.30 1017.27 1017.20 1017.14 1017.12 1017.15 1017.22 1017.33 1017.42 1017.47 1017.47 1017.40 1017.30 1017.17 1017.05 1016.97 1016.92 1016.92 1016.94 1016.97 1016.99 1017.00 1016.98 1016.95
1011.50 1011.74 1012.18 1012.77 1013.44 1014.11 1014.68 1015.13 1015.44 1015.63 1015.75 1015.86 1016.02 1016.24 1016.53 1016.83 1017.13 1017.36 1017.50 1017.54 1017.52 1017.46 1017.40 1017.39 1017.42 1017.49 1017.58 1017.65 1017.68 1017.64 1017.55 1017.41 1017.25 1017.11 1017.01 1016.96 1016.96 1016.99 1017.04 1017.08 1017.10 1017.10 1017.08
1011.47 1011.72 1012.16 1012.75 1013.42 1014.09 1014.68 1015.15 1015.49 1015.72 1015.88 1016.03 1016.21 1016.45 1016.74 1017.04 1017.33 1017.56 1017.69 1017.74 1017.72 1017.67 1017.63 1017.62 1017.65 1017.72 1017.80 1017.86 1017.87 1017.81 1017.68 1017.52 1017.34 1017.18 1017.06 1017.00 1017.00 1017.03 1017.09 1017.14 1017.18 1017.20 1017.19
1011.55 1011.81 1012.24 1012.81 1013.47 1014.12 1014.71 1015.20 1015.56 1015.83 1016.02 1016.20 1016.41 1016.66 1016.95 1017.25 1017.52 1017.74 1017.87 1017.92 1017.91 1017.87 1017.83 1017.84 1017.88 1017.95 1018.03 1018.07 1018.06 1017.99 1017.84 1017.66 1017.46 1017.28 1017.14 1017.07 1017.05 1017.08 1017.13 1017.19 1017.24 1017.27 1017.28
1011.71 1011.97 1012.39 1012.94 1013.56 1014.20 1014.78 1015.27 1015.66 1015.95 1016.18 1016.39 1016.62 1016.88 1017.17 1017.46 1017.72 1017.93 1018.05 1018.10 1018.10 1018.07 1018.05 1018.06 1018.11 1018.18 1018.25 1018.29 1018.27 1018.18 1018.03 1017.84 1017.62 1017.43 1017.28 1017.18 1017.14 1017.15 1017.18 1017.23 1017.28 1017.32 1017.34
1011.94 1012.19 1012.58 1013.10 1013.70 1014.30 1014.87 1015.37 1015.77 1016.09 1016.35 1016.59 1016.84 1017.12 1017.40 1017.69 1017.95 1018.14 1018.27 1018.32 1018.32 1018.31 1018.30 1018.31 1018.36 1018.42 1018.49 1018.51 1018.49 1018.40 1018.25 1018.05 1017.84 1017.63 1017.46 1017.34 1017.27 1017.24 1017.24 1017.27 1017.31 1017.34 1017.38
1012.19 1012.42 1012.78 1013.27 1013.83 1014.41 1014.97 1015.47 1015.89 1016.24 1016.54 1016.81 1017.09 1017.37 1017.67 1017.95 1018.20 1018.39 1018.51 1018.58 1018.59 1018.58 1018.58 1018.59 1018.63 1018.68 1018.72 1018.74 1018.71 1018.62 1018.47 1018.28 1018.07 1017.87 1017.68 1017.53 1017.42 1017.35 1017.31 1017.31 1017.32 1017.34 1017.38
1012.43 1012.63 1012.96 1013.41 1013.94 1014.50 1015.05 1015.56 1016.00 1016.39 1016.72 1017.03 1017.33 1017.63 1017.93 1018.21 1018.46 1018.66 1018.79 1018.86 1018.88 1018.88 1018.87 1018.88 1018.90 1018.93 1018.95 1018.95 1018.91 1018.82 1018.69 1018.51 1018.32 1018.12 1017.93 1017.76 1017.61 1017.49 1017.41 1017.35 1017.33 1017.34 1017.37
1012.63 1012.79 1013.08 1013.49 1013.99 1014.54 1015.10 1015.62 1016.10 1016.51 1016.89 1017.23 1017.55 1017.87 1018.18 1018.46 1018.71 1018.91 1019.05 1019.13 1019.17 1019.18 1019.17 1019.16 1019.16 1019.17 1019.16 1019.14 1019.09 1019.00 1018.88 1018.73 1018.56 1018.38 1018.19 1018.00 1017.83 1017.67 1017.54 1017.43 1017.37 1017.35 1017.38
1012.76 1012.88 1013.13 1013.52 1014.00 1014.54 1015.10 1015.65 1016.15 1016.61 1017.02 1017.39 1017.74 1018.07 1018.38 1018.67 1018.92 1019.13 1019.28 1019.38 1019.43 1019.44 1019.43 1019.42 1019.40 1019.38 1019.35 1019.31 1019.25 1019.17 1019.07 1018.95 1018.81 1018.65 1018.48 1018.29 1018.10 1017.90 1017.73 1017.58 1017.47 1017.42 1017.43
1012.81 1012.89 1013.12 1013.48 1013.95 1014.50 1015.07 1015.64 1016.17 1016.66 1017.10 1017.50 1017.86 1018.20 1018.52 1018.81 1019.07 1019.28 1019.45 1019.56 1019.63 1019.66 1019.66 1019.64 1019.60 1019.57 1019.52 1019.47 1019.41 1019.35 1019.27 1019.18 1019.08 1018.95 1018.81 1018.63 1018.43 1018.22 1018.00 1017.82 1017.67 1017.59 1017.58
1012.77 1012.84 1013.05 1013.41 1013.88 1014.43 1015.02 1015.61 1016.17 1016.68 1017.15 1017.56 1017.93 1018.27 1018.59 1018.88 1019.15 1019.37 1019.55 1019.69 1019.78 1019.83 1019.84 1019.83 1019.80 1019.75 1019.70 1019.65 1019.60 1019.55 1019.50 1019.45 1019.39 1019.30 1019.19 1019.03 1018.84 1018.62 1018.39 1018.17 1017.99 1017.88 1017.85
1012.63 1012.71 1012.94 1013.31 1013.79 1014.36 1014.97 1015.58 1016.16 1016.69 1017.16 1017.58 1017.96 1018.30 1018.61 1018.91 1019.17 1019.41 1019.61 1019.77 1019.89 1019.96 1020.00 1020.01 1019.99 1019.95 1019.90 1019.86 1019.82 1019.79 1019.78 1019.76 1019.74 1019.70 1019.62 1019.49 1019.32 1019.11 1018.87 1018.63 1018.44 1018.30 1018.25
1012.42 1012.54 1012.81 1013.21 1013.73 1014.32 1014.94 1015.57 1016.16 1016.70 1017.17 1017.59 1017.96 1018.30 1018.61 1018.91 1019.18 1019.43 1019.65 1019.83 1019.98 1020.09 1020.15 1020.18 1020.19 1020.16 1020.13 1020.11 1020.09 1020.08 1020.09 1020.11 1020.13 1020.13 1020.08 1019.99 1019.85 1019.65 1019.43 1019.19 1018.99 1018.83 1018.76
1012.14 1012.35 1012.68 1013.14 1013.70 1014.32 1014.96 1015.60 1016.19 1016.73 1017.20 1017.61 1017.98 1018.31 1018.62 1018.91 1019.19 1019.45 1019.69 1019.90 1020.07 1020.21 1020.30 1020.36 1020.39 1020.39 1020.38 1020.37 1020.37 1020.38 1020.42 1020.46 1020.51 1020.54 1020.54 1020.48 1020.37 1020.21 1020.01 1019.79 1019.59 1019.43 1019.34
1011.84 1012.15 1012.57 1013.10 1013.71 1014.37 1015.04 1015.68 1016.27 1016.80 1017.26 1017.66 1018.01 1018.34 1018.65 1018.94 1019.23 1019.50 1019.75 1019.98 1020.17 1020.33 1020.45 1020.53 1020.57 1020.60 1020.61 1020.61 1020.63 1020.66 1020.71 1020.77 1020.84 1020.89 1020.92 1020.91 1020.84 1020.72 1020.56 1020.37 1020.19 1020.04 1019.94
1011.55 1011.96 1012.49 1013.10 1013.78 1014.47 1015.15 1015.79 1016.38 1016.89 1017.33 1017.72 1018.07 1018.40 1018.71 1019.01 1019.30 1019.58 1019.84 1020.07 1020.28 1020.44 1020.57 1020.67 1020.73 1020.77 1020.79 1020.80 1020.83 1020.86 1020.92 1020.99 1021.07 1021.14 1021.20 1021.22 1021.19 1021.12 1021.01 1020.88 1020.73 1020.61 1020.51
1011.28 1011.81 1012.44 1013.14 1013.87 1014.59 1015.29 1015.92 1016.49 1016.98 1017.41 1017.79 1018.14 1018.46 1018.78 1019.09 1019.39 1019.67 1019.94 1020.18 1020.38 1020.54 1020.67 1020.77 1020.83 1020.87 1020.90 1020.92 1020.95 1020.98 1021.03 1021.10 1021.18 1021.26 1021.33 1021.39 1021.41 1021.39 1021.34 1021.26 1021.17 1021.08 1021.01
1011.07 1011.71 1012.43 1013.19 1013.97 1014.72 1015.41 1016.03 1016.58 1017.05 1017.46 1017.83 1018.17 1018.51 1018.84 1019.16 1019.47 1019.77 1020.03 1020.26 1020.46 1020.61 1020.73 1020.82 1020.88 1020.92 1020.95 1020.97 1020.99 1021.02 1021.06 1021.12 1021.19 1021.27 1021.35 1021.42 1021.48 1021.52 1021.53 1021.51 1021.48 1021.44 1021.40
1010.92 1011.64 1012.44 1013.25 1014.06 1014.81 1015.50 1016.09 1016.61 1017.06 1017.45 1017.81 1018.16 1018.51 1018.86 1019.20 1019.53 1019.83 1020.10 1020.32 1020.50 1020.65 1020.75 1020.83 1020.89 1020.92 1020.95 1020.97 1020.99 1021.01 1021.04 1021.08 1021.13 1021.20 1021.28 1021.36 1021.44 1021.52 1021.58 1021.63 1021.67 1021.68 1021.67
1010.83 1011.62 1012.46 1013.31 1014.12 1014.86 1015.52 1016.08 1016.57 1016.99 1017.36 1017.73 1018.09 1018.45 1018.83 1019.19 1019.54 1019.85 1020.13 1020.35 1020.53 1020.66 1020.76 1020.83 1020.88 1020.92 1020.95 1020.98 1020.99 1021.01 1021.02 1021.05 1021.08 1021.12 1021.18 1021.26 1021.35 1021.45 1021.55 1021.65 1021.74 1021.80 1021.84
1010.81 1011.63 1012.49 1013.34 1014.14 1014.85 1015.47 1015.99 1016.44 1016.83 1017.20 1017.56 1017.94 1018.33 1018.73 1019.13 1019.50 1019.84 1020.12 1020.35 1020.53 1020.66 1020.75 1020.83 1020.89 1020.94 1020.99 1021.02 1021.05 1021.07 1021.07 1021.08 1021.08 1021.10 1021.13 1021.18 1021.26 1021.36 1021.48 1021.60 1021.72 1021.83 1021.92
1010.84 1011.68 1012.53 1013.36 1014.12 1014.79 1015.36 1015.84 1016.25 1016.62 1016.98 1017.35 1017.74 1018.16 1018.59 1019.02 1019.42 1019.79 1020.09 1020.33 1020.52 1020.66 1020.77 1020.86 1020.94 1021.01 1021.08 1021.14 1021.19 1021.22 1021.22 1021.21 1021.19 1021.17 1021.17 1021.18 1021.22 1021.30 1021.40 1021.53 1021.67 1021.80 1021.92
1010.94 1011.76 1012.59 1013.37 1014.08 1014.70 1015.21 1015.65 1016.02 1016.37 1016.72 1017.10 1017.51 1017.96 1018.42 1018.88 1019.32 1019.71 1020.03 1020.29 1020.50 1020.66 1020.79 1020.90 1021.01 1021.12 1021.23 1021.32 1021.40 1021.45 1021.47 1021.45 1021.41 1021.36 1021.31 1021.27 1021.27 1021.29 1021.36 1021.47 1021.59 1021.74 1021.87
1011.10 1011.88 1012.67 1013.39 1014.04 1014.60 1015.06 1015.44 1015.79 1016.11 1016.46 1016.85 1017.28 1017.75 1018.24 1018.73 1019.19 1019.61 1019.95 1020.24 1020.46 1020.65 1020.80 1020.95 1021.09 1021.24 1021.39 1021.53 1021.65 1021.73 1021.77 1021.76 1021.71 1021.63 1021.54 1021.46 1021.39 1021.36 1021.38 1021.44 1021.53 1021.66 1021.79
Thickness
5734 5733 5729 5729 5728 5728 5727 5727 5726 5726 5726 5726 5726 5725 5725 5724 5724 5723 5723 5722 5722 5722 5722 5722 5721 5722 5722 5721 5721 5721 5720 5720 5719 5719 5719 5718 5718 5718 5718 5718 5719 5719 5717
5732 5730 5726 5725 5725 5725 5724 5724 5723 5723 5723 5723 5722 5722 5722 5721 5721 5720 5720 5719 5719 5719 5719 5719 5719 5719 5719 5718 5718 5717 5717 5716 5716 5715 5716 5715 5715 5714 5714 5714 5715 5715 5713
5728 5726 5723 5721 5721 5720 5720 5720 5719 5719 5719 5719 5719 5719 5718 5718 5718 5717 5717 5717 5716 5716 5716 5716 5715 5715 5715 5715 5715 5714 5713 5712 5712 5713 5714 5715 5713 5711 5711 5710 5710 5710 5709
5722 5721 5719 5717 5716 5716 5716 5716 5715 5715 5715 5715 5715 5715 5715 5714 5714 5714 5714 5714 5713 5713 5713 5712 5712 5712 5711 5711 5711 5710 5710 5709 5709 5710 5713 5712 5710 5707 5707 5707 5706 5706 5705
5716 5715 5714 5712 5712 5711 5711 5711 5711 5711 5710 5711 5711 5711 5711 5711 5711 5711 5710 5710 5710 5709 5709 5709 5708 5708 5708 5708 5707 5707 5706 5705 5706 5708 5708 5708 5706 5704 5703 5702 5702 5701 5701
5709 5709 5708 5706 5706 5706 5706 5706 5706 5706 5706 5706 5706 5707 5707 5707 5707 5706 5706 5706 5706 5706 5706 5705 5705 5704 5704 5704 5703 5703 5702 5702 5704 5705 5704 5704 5702 5699 5699 5698 5697 5697 5696
5702 5702 5701 5700 5700 5700 5700 5700 5701 5701 5701 5701 5702 5702 5702 5703 5703 5702 5702 5702 5702 5702 5701 5701 5701 5700 5700 5699 5699 5698 5697 5698 5701 5700 5700 5699 5697 5695 5694 5693 5693 5692 5692
5694 5694 5694 5693 5693 5694 5694 5694 5695 5696 5696 5696 5696 5697 5697 5698 5698 5698 5698 5698 5698 5697 5697 5696 5696 5696 5695 5694 5694 5693 5693 5693 5695 5695 5694 5693 5690 5690 5690 5689 5688 5687 5687
5687 5687 5688 5687 5687 5687 5687 5688 5689 5690 5690 5691 5691 5691 5692 5692 5693 5693 5693 5693 5693 5693 5692 5692 5691 5691 5690 5689 5688 5688 5688 5689 5692 5690 5689 5688 5685 5685 5685 5684 5683 5682 5682
5679 5680 5681 5682 5682 5682 5682 5682 5682 5683 5684 5685 5685 5685 5686 5686 5687 5687 5688 5687 5687 5687 5687 5686 5686 5685 5685 5684 5683 5682 5683 5684 5686 5684 5683 5681 5680 5680 5679 5679 5678 5677 5676
5671 5673 5674 5675 5676 5676 5677 5676 5676 5677 5678 5678 5679 5679 5680 5681 5682 5682 5681 5681 5682 5682 5681 5681 5680 5679 5679 5678 5677 5677 5678 5680 5679 5678 5676 5674 5674 5674 5674 5673 5672 5671 5670
5663 5665 5667 5668 5669 5670 5670 5670 5671 5671 5672 5673 5674 5675 5676 5676 5677 5676 5675 5675 5676 5676 5675 5675 5674 5674 5674 5674 5672 5672 5673 5673 5673 5671 5669 5668 5668 5668 5668 5667 5666 5665 5665
5657 5658 5660 5661 5662 5663 5663 5664 5665 5665 5666 5667 5668 5669 5670 5670 5671 5671 5671 5670 5671 5671 5671 5669 5669 5670 5670 5669 5669 5668 5668 5667 5667 5665 5662 5661 5662 5662 5662 5661 5660 5659 5659
5650 5651 5652 5653 5655 5656 5656 5657 5658 5659 5660 5661 5661 5663 5665 5665 5666 5667 5667 5667 5667 5666 5666 5666 5666 5665 5664 5664 5664 5663 5662 5661 5660 5658 5655 5654 5654 5655 5655 5654 5654 5653 5652
5643 5644 5644 5645 5647 5648 5649 5650 5651 5652 5653 5654 5654 5656 5658 5660 5660 5662 5662 5661 5661 5661 5661 5661 5661 5660 5659 5658 5657 5656 5655 5654 5653 5651 5649 5647 5647 5647 5647 5647 5647 5646 5645
5636 5637 5638 5638 5640 5641 5642 5642 5643 5644 5645 5646 5647 5649 5651 5653 5654 5655 5656 5655 5655 5656 5655 5655 5655 5654 5653 5652 5651 5649 5648 5647 5646 5644 5642 5640 5639 5639 5639 5639 5638 5638 5637
5629 5630 5631 5631 5632 5634 5635 5635 5635 5636 5638 5639 5640 5641 5643 5645 5647 5648 5649 5649 5649 5649 5649 5649 5648 5647 5646 5645 5644 5642 5641 5640 5638 5637 5635 5633 5632 5630 5630 5629 5629 5628 5628
5622 5623 5623 5623 5623 5625 5627 5627 5628 5629 5630 5632 5633 5634 5636 5637 5639 5640 5641 5642 5642 5642 5642 5642 5642 5641 5640 5639 5637 5635 5634 5632 5631 5629 5627 5625 5624 5622 5621 5619 5619 5619 5618
5616 5616 5616 5615 5616 5617 5619 5619 5621 5622 5623 5625 5626 5627 5629 5630 5631 5633 5633 5634 5634 5635 5635 5636 5635 5635 5633 5631 5630 5627 5626 5624 5622 5620 5619 5616 5615 5613 5612 5610 5609 5609 5608
5609 5610 5610 5609 5610 5610 5611 5612 5613 5614 5615 5618 5619 5619 5620 5622 5624 5625 5626 5626 5626 5627 5628 5628 5627 5626 5625 5623 5621 5619 5617 5615 5613 5612 5611 5608 5606 5604 5603 5602 5601 5600 5598
5602 5604 5605 5605 5604 5605 5606 5607 5607 5609 5609 5610 5611 5612 5613 5615 5616 5618 5618 5618 5618 5619 5620 5620 5619 5618 5616 5614 5614 5612 5609 5607 5605 5603 5602 5601 5598 5596 5595 5594 5592 5591 5590
5598 5599 5599 5600 5599 5600 5601 5602 5603 5604 5603 5603 5604 5604 5605 5607 5608 5609 5611 5611 5610 5610 5611 5611 5611 5610 5608 5606 5608 5608 5606 5602 5598 5595 5593 5591 5590 5588 5586 5585 5583 5581 5580
5593 5593 5594 5595 5594 5594 5595 5595 5596 5595 5595 5596 5597 5597 5597 5598 5600 5601 5603 5604 5603 5603 5603 5602 5602 5602 5601 5598 5597 5599 5601 5602 5595 5589 5585 5583 5581 5579 5578 5575 5574 5572 5570
5589 5588 5589 5590 5589 5589 5589 5591 5592 5592 5594 5594 5594 5592 5591 5591 5593 5594 5594 5595 5595 5595 5594 5593 5593 5593 5593 5591 5587 5586 5587 5589 5588 5585 5579 5575 5572 5571 5569 5567 5565 5562 5560
5586 5585 5586 5585 5585 5584 5584 5586 5586 5587 5588 5588 5587 5586 5585 5584 5585 5586 5585 5586 5586 5586 5586 5584 5584 5583 5582 5582 5580 5577 5576 5575 5576 5577 5575 5570 5565 5562 5559 5557 5555 5553 5550
5583 5583 5583 5582 5581 5581 5580 5581 5582 5582 5582 5581 5581 5580 5579 5579 5578 5578 5577 5577 5577 5577 5576 5575 5574 5573 5572 5571 5569 5567 5567 5566 5566 5565 5565 5562 5558 5554 5549 5547 5545 5542 5540